AO-07 1 07530U 74089B 25295.97619258 -.00000040 00000-0 38443-4 0 9994 2 07530 101.9984 301.7043 0011995 223.2108 164.8024 12.53692684330793 UO-11 1 14781U 84021B 25296.15855581 .00002237 00000-0 23837-3 0 9998 2 14781 97.7731 260.0037 0006143 243.5338 116.5250 14.89884559221823 AO-27 1 22825U 93061C 25296.16123613 .00000221 00000-0 10133-3 0 9991 2 22825 98.7216 358.2916 0009456 77.8933 282.3309 14.30849215673100 FO-29 1 24278U 96046B 25295.90616654 .00000052 00000-0 89344-4 0 9997 2 24278 98.5515 171.8517 0349874 352.0785 7.4916 13.53257730441072 NOAA-15 1 25338U 98030A 25295.92624375 .00000234 00000-0 11370-3 0 9996 2 25338 98.5275 317.7578 0009583 328.4134 31.6471 14.27040136427459 GO-32 1 25397U 98043D 25295.91886046 .00000150 00000-0 84909-4 0 9995 2 25397 98.9873 277.9685 0001635 139.8331 220.2968 14.24355581417558 ISS 1 25544U 98067A 25295.78201116 .00014649 00000-0 27011-3 0 9997 2 25544 51.6347 34.7593 0004450 325.2388 34.8309 15.49358610534958 NO-44 1 26931U 01043C 25296.09394481 .00000262 00000-0 12881-3 0 9994 2 26931 67.0488 137.4473 0007140 272.9490 87.0794 14.31811073256502 SO-50 1 27607U 02058C 25296.06895353 .00001743 00000-0 22816-3 0 9997 2 27607 64.5516 142.1722 0068958 306.0333 53.4394 14.82117709229308 CO-55 1 27844U 03031E 25296.00479069 .00000536 00000-0 25169-3 0 9991 2 27844 98.6784 302.5582 0010148 148.8132 211.3650 14.24115538157910 CO-57 1 27848U 03031J 25295.94682331 .00000463 00000-0 22307-3 0 9995 2 27848 98.6813 302.4028 0009726 165.9103 194.2348 14.23433127157626 RS-22 1 27939U 03042A 25296.17696057 .00001983 00000-0 31871-3 0 9998 2 27939 98.3374 109.0405 0010420 303.7320 175.9980 14.72752582180652 CO-58 1 28895U 05043F 25296.13096575 .00003087 00000-0 50414-3 0 9999 2 28895 98.2691 82.3757 0013523 235.0335 124.9602 14.71586475 66875 CO-65 1 32785U 08021C 25296.16170323 .00008152 00000-0 56096-3 0 9998 2 32785 97.8017 268.5850 0011414 109.3857 250.8604 15.06114125949471 CO-66 1 32791U 08021J 25296.08519355 .00021804 00000-0 93189-3 0 9991 2 32791 97.7413 279.5913 0006240 73.9322 286.2601 15.22858790951084 RS-30 1 32953U 08025A 25296.17000229 .00000027 00000-0 12100-3 0 9998 2 32953 82.5010 142.8789 0019868 108.0295 252.2952 12.43169684790249 NOAA-19 1 33591U 09005A 25296.19288977 .00000119 00000-0 87549-4 0 9998 2 33591 98.9831 1.5658 0013381 344.8151 15.2617 14.13420371861001 SRMSAT 1 37841U 11058D 25295.99819051 .00000524 00000-0 14108-3 0 9991 2 37841 19.9725 55.0424 0011796 113.8827 44.7108 14.11485043724268 ZACUBE-1 1 39417U 13066B 25295.84883920 .00008451 00000-0 70309-3 0 9995 2 39417 97.7988 252.3734 0041526 322.9433 36.8923 14.98266315645151 Delfi-N3xt 1 39428U 13066N 25296.01480862 .00011192 00000-0 10794-2 0 9992 2 39428 97.8301 212.2714 0078977 274.3510 84.8687 14.90706880639232 GOMX-1 1 39430U 13066Q 25296.13643913 .00002635 00000-0 40772-3 0 9998 2 39430 97.6649 146.4259 0132296 117.9668 243.5001 14.68262492635119 LO-74 1 39440U 13066AA 25295.95571764 .00005665 00000-0 55542-3 0 9999 2 39440 97.8629 239.7480 0062516 92.7814 268.0562 14.91160817641601 AO-73 1 39444U 13066AE 25296.13694737 .00012172 00000-0 85389-3 0 9993 2 39444 97.7983 258.8617 0037849 290.0136 69.7016 15.04740912643957 DTUSAT-2 1 40030U 14033W 25296.01362476 .00012009 00000-0 73168-3 0 9991 2 40030 98.0715 274.6845 0007642 337.1139 22.9747 15.10524061616820 EO-80 1 40032U 14033Y 25295.49663917 .00011651 00000-0 70892-3 0 9991 2 40032 98.0587 273.6066 0006000 263.8865 96.1680 15.10588834616727 LILACSAT-2 1 40908U 15049K 25296.23939542 .00019328 00000-0 44433-3 0 9995 2 40908 97.4974 320.1283 0009609 43.3100 316.8900 15.42663855559110 IO-86 1 40931U 15052B 25151.18580175 .00001241 00000-0 78118-4 0 9996 2 40931 6.0006 24.0987 0012733 338.8432 21.1169 14.78805930523159 Horyu-4 1 41340U 16012D 25296.18821021 .00049314 00000-0 10028-2 0 9993 2 41340 30.9956 295.5554 0003140 60.5878 299.5083 15.45026634533714 Lapan A3 1 41603U 16040E 25296.18073498 .00005029 00000-0 17016-3 0 9993 2 41603 97.1423 295.5973 0012078 136.9051 223.3138 15.30972573518520 CAS-2T 1 41847U 16066G 25296.11121784 .00002562 00000-0 36787-3 0 9991 2 41847 98.4088 9.3467 0345460 128.2331 235.0494 14.43935119470574 TechnoSat 1 42829U 17042E 25296.00187019 .00006619 00000-0 49667-3 0 9996 2 42829 97.4030 98.4222 0018580 181.7361 178.3804 15.02816706451058 AO-91 1 43017U 17073E 25296.15114963 .00011860 00000-0 57164-3 0 9999 2 43017 97.5011 163.5406 0167171 64.1188 297.7168 15.07303191429618 S-Net D 1 43186U 18014G 25295.99154756 .00007806 00000-0 43980-3 0 9993 2 43186 97.5486 197.5249 0010638 112.6365 247.5992 15.13436706422846 S-Net B 1 43187U 18014H 25295.99880817 .00008113 00000-0 45713-3 0 9996 2 43187 97.5492 197.5102 0011342 109.1677 251.0783 15.13413221422847 S-Net A 1 43188U 18014J 25295.99145495 .00007783 00000-0 43835-3 0 9998 2 43188 97.5500 197.6717 0011288 109.6952 250.5498 15.13442001422846 S-Net C 1 43189U 18014K 25296.00158953 .00008160 00000-0 45966-3 0 9992 2 43189 97.5518 197.7188 0012767 104.0284 256.2367 15.13406505421395 Ten-Koh 1 43677U 18084G 25296.06640256 .00003602 00000-0 28457-3 0 9991 2 43677 98.0697 113.6857 0009202 169.7046 190.4367 15.01328078380562 PO-101 1 43678U 18084H 25296.19590709 .00004425 00000-0 36958-3 0 9992 2 43678 98.1086 117.6220 0007627 177.1352 182.9914 14.99072579380692 QO-100 1 43700U 18090A 25296.15044600 .00000000 00000-0 00000 0 0 9995 2 43700 0.0111 224.2916 0001878 27.0136 220.4364 1.00271793 25309 MinXSS-2 1 43758U 18099A 25296.16091367 .00029988 00000-0 99461-3 0 9999 2 43758 97.4868 2.9549 0010882 43.2456 316.9637 15.31151772377671 AO-95 1 43770U 18099N 25296.13696272 .00014108 00000-0 65252-3 0 9995 2 43770 97.4749 352.8390 0011527 100.4298 259.8236 15.20202695377120 SNUSat 2 1 43782U 18099AA 25296.15247016 .00012020 00000-0 61044-3 0 9994 2 43782 97.4435 348.4534 0012497 49.8269 310.4056 15.16973450377030 SnugLite 1 43784U 18099AC 25296.13650956 .00014456 00000-0 66244-3 0 9997 2 43784 97.4246 348.3206 0004399 60.9699 299.1977 15.20565567377216 ITASat 1 1 43786U 18099AE 25296.12174282 .00009084 00000-0 48895-3 0 9994 2 43786 97.4400 347.5088 0015333 97.5953 262.7022 15.14960868376962 EAGLET 1 1 43790U 18099AJ 25296.10183935 .00006733 00000-0 41293-3 0 9995 2 43790 97.4597 346.9467 0013156 85.3041 274.9690 15.10387837376514 ESEO 1 43792U 18099AL 25296.09567234 .00001901 00000-0 14459-3 0 9999 2 43792 97.4308 338.3369 0014059 65.0400 295.2285 15.03187910376179 JO-97 1 43803U 18099AX 25296.11809097 .00019544 00000-0 79302-3 0 9991 2 43803 97.4499 354.1642 0007507 40.8293 319.3506 15.24624170377390 Suomi 100 1 43804U 18099AY 25296.11044402 .00016041 00000-0 71333-3 0 9998 2 43804 97.4563 353.0138 0012253 41.4425 318.7737 15.21516455377289 ISAT 1 43879U 18111D 25296.03236339 .00039534 00000-0 10887-2 0 9996 2 43879 97.5886 213.9069 0011014 81.7968 278.4525 15.36986497374445 UWE-4 1 43880U 18111E 25295.51384596 .00027608 00000-0 91755-3 0 9992 2 43880 97.5829 210.7639 0013622 93.1174 267.1625 15.31070882374235 Sparrow 1 43881U 18111F 25295.88804083 .00045329 00000-0 11777-2 0 9996 2 43881 97.6060 217.2275 0009347 105.7099 254.5177 15.38771076374532 Prox-1 1 44339U 19036A 25296.08352199 .00016377 00000-0 19195-2 0 9994 2 44339 23.9966 249.7739 0007330 181.7824 178.2648 14.83311673338136 Taurus 1 1 44530U 19059C 25296.21496884 .00011774 00000-0 20617-2 0 9994 2 44530 98.6217 82.3403 0008697 333.2746 26.8008 14.67952841323828 Duchifat 3 1 44854U 19089C 25296.13015483 .00202129 00000-0 17093-2 0 9999 2 44854 36.9337 203.6319 0009994 277.9897 81.9732 15.68120063324115 TO-108 1 44881U 19093C 25296.19900215 .00001766 00000-0 20823-3 0 9996 2 44881 97.7811 8.9526 0014556 141.8202 218.4047 14.85928239316219 FloripaSat 1 1 44885U 19093G 25296.23818650 .00009202 00000-0 73814-3 0 9997 2 44885 97.8087 24.2214 0011222 126.2538 233.9724 15.00270155317074 RS-44 1 44909U 19096E 25296.04072867 .00000021 00000-0 42992-4 0 9992 2 44909 82.5189 137.3032 0217197 339.1152 20.1176 12.79744788272017 SALSAT 1 46495U 20068K 25295.89947073 .00012007 00000-0 48202-3 0 9993 2 46495 97.8752 280.4879 0012715 58.7194 301.5286 15.25061159279138 CSS (TIANHE-1) 1 48274U 21035A 25296.12788093 .00037099 00000-0 43910-3 0 9996 2 48274 41.4668 324.1921 0011353 266.2213 93.7328 15.60448983256129 TUBIN 1 48900U 21059X 25296.18734448 .00146615 00000-0 80574-3 0 9991 2 48900 97.6727 117.9966 0001613 86.0878 274.0573 15.79329140241284 CUTE 1 49263U 21088D 25296.17852235 .00049158 00000-0 74644-3 0 9995 2 49263 97.4394 16.9208 0006851 98.3649 261.8382 15.54414912225439 TeikyoSat 4 1 49396U 21102B 25296.05538272 .00003302 00000-0 21644-3 0 9991 2 49396 97.3964 329.5501 0013217 35.0856 325.1241 15.08297048216963 Z-Sat 1 49399U 21102E 25296.15392400 .00005875 00000-0 31044-3 0 9998 2 49399 97.3653 333.6227 0017382 359.4653 0.6559 15.15734660217509 KOSEN 1 1 49402U 21102H 25296.11302311 .00009822 00000-0 42639-3 0 9999 2 49402 97.3549 338.0783 0014013 329.8796 30.1633 15.22435421217895 HO-113 1 50466U 21131B 25296.24140707 .00001021 00000-0 33142-3 0 9998 2 50466 98.5075 24.9174 0005264 91.7973 268.3819 14.41007236200981 SNUGLITE 2 1 52899U 22065F 25295.87446091 .00001996 00000-0 39316-3 0 9990 2 52899 98.1887 76.7156 0008374 54.6972 305.5012 14.63620518176278 UmKA 1 (RS40S) 1 57172U 23091G 25295.90804037 .00009304 00000-0 47094-3 0 9994 2 57172 97.5416 350.6095 0012882 221.0685 138.9580 15.17162220127987 CubeBel-2 (EU11S) 1 57175U 23091K 25295.93731351 .00014247 00000-0 62047-3 0 9995 2 57175 97.5415 352.7029 0010409 224.1586 135.8820 15.22278529128122 ENSO 1 58470U 23185J 25295.07210078 .00430002 70884-4 14830-2 0 9999 2 58470 97.3516 16.4799 0006278 272.5244 87.5310 15.89509478106087 SONATE-2 1 59112U 24043Q 25295.36302710 .00031917 00000-0 76014-3 0 9998 2 59112 97.5303 69.8548 0009566 354.8589 5.2557 15.41498171 91055 MO-122 1 60209U 24125G 25296.11304639 .00031815 00000-0 73684-3 0 9991 2 60209 97.2594 146.5829 0016861 14.9921 345.1823 15.42233702 72798 GRBBeta 1 60237U 24128C 25296.16958538 .00005097 00000-0 36894-3 0 9998 2 60237 61.9912 326.3671 0057021 85.8312 274.9293 15.04036125 70581 Curium One 1 60242U 24128H 25296.14349450 .00010006 00000-0 64417-3 0 9997 2 60242 61.9804 322.4507 0056735 82.3278 278.4253 15.07569684 70653 ROBUSTA-3A 1 60243U 24128J 25295.46288109 .00008792 00000-0 57737-3 0 9991 2 60243 61.9881 326.1621 0056657 79.6565 281.0908 15.06964762 70537 CatSat 1 60246U 24125J 25296.12682135 .00036205 00000-0 10084-2 0 9995 2 60246 97.2407 144.2009 0036606 332.5545 27.3765 15.36022696 70745 HYPERVIEW-1G (RS66S) 1 61772U 24199AP 25296.16629815 .00041739 00000-0 94889-3 0 9995 2 61772 97.3279 165.1464 0013846 67.9061 292.3656 15.42784291 97800 AO-123 1 61781U 24199AY 25296.15771752 .00011781 00000-0 39940-3 0 9993 2 61781 97.3308 162.1971 0017055 77.6156 282.6993 15.30558221 97605 ZIMSAT 2 1 61783U 24199BA 25296.16935017 .00117334 00000-0 16571-2 0 9997 2 61783 97.3205 167.3282 0012263 63.1296 297.1210 15.56076329101102 HADES-R (SO-124) 1 62690U 25009CK 25295.91542832 .00101088 00000-0 21948-2 0 9990 2 62690 97.3972 17.1935 0002371 298.1447 61.9562 15.43989127 42909 HYDRA-T 1 62692U 25009CM 25295.21745691 .00105706 00000-0 22509-2 0 9998 2 62692 97.3972 16.6005 0002341 288.9017 71.1977 15.44546625 42805 JINJUSat 1B 1 63210U 25052A 25295.95094741 .00018903 00000-0 77232-3 0 9993 2 63210 97.4222 188.5051 0003224 167.5921 192.5396 15.24419542 33840 NUSHSAT 1 1 63211U 25052B 25295.97528644 .00021630 00000-0 86457-3 0 9990 2 63211 97.4209 188.5940 0002986 171.4626 188.6663 15.25129083 33856 TEVEL2-4 1 63213U 25052D 25295.95663339 .00020345 00000-0 82602-3 0 9991 2 63213 97.4125 188.2272 0001661 174.4171 185.7085 15.24618581 33847 TEVEL2-5 1 63214U 25052E 25296.15695212 .00020410 00000-0 82966-3 0 9996 2 63214 97.4126 188.4182 0001716 174.5507 185.5750 15.24577454 33879 TEVEL2-6 1 63215U 25052F 25295.90015235 .00020463 00000-0 83319-3 0 9991 2 63215 97.4129 188.1546 0001605 176.6476 183.4773 15.24521213 33839 TEVEL2-1 1 63217U 25052H 25295.93276889 .00020631 00000-0 84711-3 0 9994 2 63217 97.4101 188.0386 0001127 209.1554 150.9621 15.24237702 33838 TEVEL2-3 1 63218U 25052J 25295.66995945 .00020274 00000-0 83248-3 0 9993 2 63218 97.4103 187.7824 0001074 215.1949 144.9218 15.24240452 33796 TEVEL2-2 1 63219U 25052K 25295.93354419 .00020719 00000-0 85074-3 0 9992 2 63219 97.4101 188.0393 0001135 210.8482 149.2689 15.24236238 33834 TEVEL2-9 1 63237U 25052AD 25295.65171691 .00019506 00000-0 83434-3 0 9990 2 63237 97.4168 187.5348 0005010 263.5377 96.5290 15.22855297 33769 TEVEL2-7 1 63238U 25052AE 25295.66120431 .00019433 00000-0 83407-3 0 9997 2 63238 97.4168 187.5275 0005075 263.3647 96.7012 15.22740107 33765 TEVEL2-8 1 63239U 25052AF 25295.66592755 .00019233 00000-0 82622-3 0 9996 2 63239 97.4167 187.5190 0005111 263.7125 96.3530 15.22711522 33767 HYDRA-W 1 63490U 25052BL 25296.18633928 .00067126 00000-0 20626-2 0 9990 2 63490 97.4102 189.5571 0005522 246.9107 113.1553 15.33441056 33957 HADES-ICM (SO-125) 1 63492U 25052BN 25295.93542727 .00058100 00000-0 18557-2 0 9992 2 63492 97.4109 189.1476 0006113 255.4064 104.6500 15.32244751 33904 Dragonfly 1 65729U 98067XH 25296.00538279 .00102414 00000-0 13451-2 0 9995 2 65729 51.6332 32.5059 0001999 38.9749 321.1387 15.57693972 5221 RSP-03 1 65732U 98067XL 25295.56315675 .00085935 00000-0 11672-2 0 9993 2 65732 51.6327 34.8016 0004239 2.5439 357.5574 15.56869771 5165 GHS-01 1 65733U 98067XM 25296.00074252 .00112283 00000-0 14451-2 0 9992 2 65733 51.6337 32.4757 0002309 31.8320 328.2811 15.58191619 5231 BOTAN 1 65942U 98067XP 25295.57299820 .00078245 00000-0 12494-2 0 9999 2 65942 51.6341 35.6150 0003913 310.3503 49.7145 15.52487725 1893